Regional Weather Roundup
Issued by NWS

Home | Current Version | Previous Version | Graphics & Text | Print | Product List | Glossary On
Versions: 1 2 3 4 5 6 7 8 9 10 11 12 13 14 15 16 17 18 19 20 21 22 23 24 25 26 27 28 29 30 31 32 33 34 35 36 37 38 39 40 41 42 43 44 45 46 47 48 49 50
000
ASUS43 KMPX 191510
RWRMN
WEATHER ROUNDUP FOR MINNESOTA
NATIONAL WEATHER SERVICE TWIN CITIES/CHANHASSEN MN
900 AM CST SUN NOV 19 2017


NOTE: "FAIR" INDICATES FEW OR NO CLOUDS BELOW 12,000 FEET WITH NO
SIGNIFICANT WEATHER AND/OR OBSTRUCTIONS TO VISIBILITY. N/A MEANS
CURRENT SKY AND/OR WEATHER CONDITIONS ARE NOT AVAILABLE.

MNZ060>063-068>070-191600-
   Twin Cities Metro

CITY           SKY/WX    TMP DP  RH WIND       PRES   REMARKS
TWIN CITIES    MOSUNNY   21  13  71 VRB5      30.08S WCI  15
ST PAUL        SUNNY     21  13  71 W5        30.10R WCI  15
CRYSTAL        SUNNY     21  11  65 SW6       30.06S WCI  13
BLAINE         PTSUNNY   23  14  68 SW7       30.05F WCI  15
LAKEVILLE      SUNNY     19  14  79 W5        30.08R WCI  13
EDEN PRAIRIE   SUNNY     20  13  74 SW7       30.07S WCI  11
SOUTH ST PAUL  SUNNY     22  13  68 W6        30.08S WCI  15
LAKE ELMO      FAIR      23  14  68 W8        30.08R WCI  14
$$
MNZ001>005-007-008-013>017-022>024-027-028-191600-
   Northwest Minnesota

CITY           SKY/WX    TMP DP  RH WIND       PRES   REMARKS
BEMIDJI        CLOUDY    15  10  80 SW7       29.91S WCI   5
HALLOCK        CLOUDY    16  12  86 SE6       29.90S WCI   7
ROSEAU         CLOUDY    18  10  73 SW6       29.90F WCI   9
WARROAD        CLOUDY    14  10  85 SW6       29.90S WCI   5
THIEF RVR FALL CLOUDY    17  12  80 S9        29.91F WCI   6
CROOKSTON      CLOUDY    18  14  86 S10       29.91F WCI   6
FOSSTON        CLOUDY    16  10  79 S9        29.91F WCI   4
DETROIT LAKES  SUNNY     21  18  86 S7        29.93F WCI  13
MOORHEAD       SUNNY     18  14  86 S10       29.94F WCI   6
PARK RAPIDS    CLOUDY    18  13  80 SW7       29.93S WCI   9
MAHNOMEN       PTSUNNY   17  13  84 S7        29.91F WCI   8
$$
MNZ006-009>011-018-025>026-191600-
   North Central Minnesota

CITY           SKY/WX    TMP DP  RH WIND       PRES   REMARKS
BAUDETTE       CLOUDY    11   6  81 SW5       29.90R WCI   3
FLAG ISLAND    CLOUDY     9   3  78 W3        29.89S
INTL FALLS     CLOUDY     9   4  80 SW3       29.90F
WASKISH        CLOUDY    18  10  73 W9        29.92R WCI   6
BIG FORK       MOSUNNY   12   9  85 SW3       29.92R
LONGVILLE      CLOUDY    16  12  86 SW5       29.95R WCI   9
GRAND RAPIDS   CLOUDY    14   9  80 S7        29.95S WCI   4
CRANE LAKE     MOSUNNY    7   3  85 S3        29.94S
ORR            MOSUNNY    7   1  78 CALM      29.88F
COOK           CLOUDY     9   5  85 SW7       29.92S WCI  -3
WALKER         CLOUDY    15  10  80 SW5       29.93R WCI   8
$$
MNZ012-019>021-037-191600-
   Northeast Minnesota

CITY           SKY/WX    TMP DP  RH WIND       PRES   REMARKS
DULUTH         MOSUNNY   12   8  84 W13       29.94S WCI  -3
ELY            SUNNY      7   5  92 W8        29.91R WCI  -6
HIBBING        MOSUNNY   10   7  87 SW5       29.93S WCI   2
EVELETH        SUNNY      9   3  78 SW3       29.94R
DULUTH HARBOR  PTSUNNY   18  12  79 SW14      30.01S WCI   4
TWO HARBORS    SUNNY     16   9  73 W5        29.93S WCI   9
SILVER BAY     SUNNY     12   7  79 W3        29.92S
GRAND MARAIS     N/A     20  13  74 W10       29.92R WCI   9
G MARAIS ARPRT FLURRIES  10   3  72 W3        29.82R
$$
MNZ029>031-032-039>041-046>048-054>057-064-191600-
   West Central Minnesota

CITY           SKY/WX    TMP DP  RH WIND       PRES   REMARKS
FERGUS FALLS   SUNNY     19  16  86 S7        29.99F WCI  10
WHEATON        CLOUDY    27  19  74 S8        29.98F WCI  18
MORRIS         MOSUNNY   21  18  86 S6        29.97F WCI  14
ALEXANDRIA     SUNNY     21  16  81 SW8       29.97F WCI  11
ELBOW LAKE     FAIR      21  18  86 SE7       29.97F FOG     WCI  12
WADENA         CLOUDY    18  12  79 S5        29.94F WCI  11
GLENWOOD       SUNNY     19  18  93 SW5       29.99S WCI  13
APPLETON       CLOUDY    25  19  80 CALM      30.00S
BENSON         CLOUDY    21  18  86 SW6       30.01F WCI  14
ORTONVILLE     CLOUDY    27  19  74 MISG      29.98F
MADISON        MOSUNNY   32  25  74 SW7       30.00F WCI  26
WILLMAR        FAIR      25  19  80 CALM      30.02F
$$
MNZ033>034-036-042>043-049>051-058-059-191600-
   Central Minnesota

CITY           SKY/WX    TMP DP  RH WIND       PRES   REMARKS
ST CLOUD       CLOUDY    18  14  84 S6        30.03S WCI  10
SAUK CENTRE    FAIR      19  14  84 S5        30.00S WCI  12
PAYNESVILLE    MOSUNNY   22  17  83 S3        30.02F
AITKIN         CLOUDY    16  10  79 SW6       29.97R WCI   7
PINE RIVER     MOSUNNY   16  10  79 SW3       29.99R
BRAINERD       MOSUNNY   19  12  74 SW8       29.98S WCI   9
STAPLES        CLOUDY    18  12  79 S3        29.97F
LONG PRAIRIE   FAIR      18  14  86 S6        29.99F WCI   9
LITTLE FALLS   CLOUDY    19  10  68 S3        30.02R
LITCHFIELD     MOSUNNY   21  18  86 CALM      30.03F
BUFFALO        SUNNY     20  14  79 S3        30.06S
MAPLE LAKE     CLOUDY    21  17  85 SW3       30.05F
HUTCHINSON     CLOUDY    22  18  85 S5        30.05F WCI  15
$$
MNZ037-044-045-052-053-191600-
   East Central Minnesota

CITY           SKY/WX    TMP DP  RH WIND       PRES   REMARKS
PRINCETON      CLOUDY    19  16  86 S3        30.03S
MORA           CLOUDY    18  12  79 SW5       30.04S WCI  11
CAMBRIDGE      MOSUNNY   19  10  68 SW5       30.05R WCI  13
RUSH CITY      CLOUDY    19  12  77 SW6       30.05R WCI  10
MOOSE LAKE     CLOUDY    18  10  73 CALM      29.98S
HINCKLEY       FAIR      19  14  79 W8        30.02S WCI   9
CLOQUET        CLOUDY    14   9  79 W7        29.96R WCI   4
MCGREGOR       MOSUNNY   18  12  79 SW5       29.99R WCI  11
$$
MNZ071>073-080-081-089-090-097-098-191600-
   Southwest Minnesota

CITY           SKY/WX    TMP DP  RH WIND       PRES   REMARKS
MONTEVIDEO     MOSUNNY   25  19  80 CALM      30.01F
GRANITE FALLS  MOSUNNY   27  22  80 S6        30.03F HAZE    WCI  20
CANBY          CLOUDY    33  23  67 SW17      30.00F WCI  22
MARSHALL       MOSUNNY   31  20  63 SW20      30.01F WCI  19
REDWOOD FALLS  CLOUDY    25  17  72 SW7       30.04F WCI  17
OLIVIA         CLOUDY    23  19  86 S6        30.03F WCI  16
PIPESTONE      CLOUDY    25  18  74 SW7       30.04F WCI  17
WINDOM           N/A     27  12  54 SW7       30.06F WCI  19
WORTHINGTON    CLOUDY    27  19  72 SW9       30.08R WCI  18
JACKSON        CLOUDY    27  19  74 CALM      30.08S
SLAYTON        CLOUDY    28  19  67 S10       30.05F WCI  19
$$
MNZ065>067-074>077-082>085-091>093-191600-
   South Central Minnesota

CITY           SKY/WX    TMP DP  RH WIND       PRES   REMARKS
MANKATO        SUNNY     20  15  81 S6        30.09S WCI  12
NEW ULM        MOSUNNY   21  16  79 CALM      30.06F
ST JAMES       CLOUDY    25  19  80 S7        30.09R WCI  17
FAIRMONT       SUNNY     26  19  74 W10       30.09F WCI  16
GLENCOE        MOSUNNY   21  18  85 S5        30.06S WCI  15
FARIBAULT      SUNNY     21  14  73 SW6       30.08S WCI  14
OWATONNA       SUNNY     21  16  79 SW7       30.08S WCI  13
WASECA         SUNNY     23  18  80 SW7       30.10S WCI  15
ALBERT LEA     SUNNY     21  14  73 SW5       30.09S WCI  15
$$
MNZ078>079-086>088-094>096-191600-
   Southeast Minnesota

CITY           SKY/WX    TMP DP  RH WIND       PRES   REMARKS
ROCHESTER      SUNNY     20  12  71 W9        30.07F WCI   9
RED WING       SUNNY     21  10  63 W6        30.08S WCI  14
STANTON        SUNNY     22  15  73 SW7       30.07F WCI  13
DODGE CENTER   SUNNY     19  12  73 W8        30.06F WCI   9
WINONA           N/A     23  14  68 W6        30.11R WCI  16
AUSTIN         SUNNY     21  12  68 W6        30.08F WCI  14
PRESTON        SUNNY     20  10  66 W12       30.09S WCI   8
$$
ABBREVIATIONS USED IN REMARKS
   TC - TEMPERATURES IN CELSIUS
  WCI - WIND CHILL INDEX
   HX - HEAT INDEX
  VSB - VISIBILITY
$$




USA.gov is the U.S. government's official web portal to all federal, state and local government web resources and services.